FW0824 Weather Reports


time (UTC)temp
C
wind
direction
speed
KPH
gust
KPH
rain 1hr
cm
rain 24hr
cm
rain mn
cm
humidity
%
barometer
mb
20210916103030 19 145 8.0 19.3 0.03 0.03 0.03 70 1012.3
20210916102530 20 177 8.0 19.3 0.03 0.03 0.03 67 1012.1
20210916102030 20 179 8.0 19.3 0.00 0.00 0.00 65 1012.4
20210916101529 20 192 8.0 19.3 0.00 0.00 0.00 64 1012.4
20210916101029 20 221 8.0 19.3 0.00 0.00 0.00 64 1012.3
20210916100529 20 198 8.0 19.3 0.00 0.00 0.00 64 1012.3
20210916100028 20 190 8.0 19.3 0.00 0.00 0.00 63 1012.4
20210916095530 20 177 6.4 19.3 0.00 0.00 0.00 63 1012.3
20210916095026 20 180 8.0 19.3 0.00 0.00 0.00 63 1012.4
20210916094527 20 252 6.4 17.7 0.00 0.00 0.00 63 1012.4
20210916094025 20 204 6.4 16.1 0.00 0.00 0.00 63 1012.4
20210916093526 20 215 8.0 16.1 0.00 0.00 0.00 63 1012.6
20210916093025 20 240 8.0 19.3 0.00 0.00 0.00 63 1012.6
20210916092526 20 165 8.0 20.9 0.00 0.00 0.00 62 1012.5
20210916092025 20 183 9.7 22.5 0.00 0.00 0.00 62 1012.6
20210916091520 20 210 9.7 27.4 0.00 0.00 0.00 62 1012.6
20210916091022 20 194 9.7 27.4 0.00 0.00 0.00 62 1012.7
20210916090520 20 165 9.7 17.7 0.00 0.00 0.00 62 1012.7
20210916090022 20 168 9.7 19.3 0.00 0.00 0.00 62 1012.6
20210916085520 20 190 9.7 29.0 0.00 0.00 0.00 61 1012.6
20210916085019 20 240 9.7 29.0 0.00 0.00 0.00 61 1012.7
20210916084517 20 156 9.7 25.7 0.00 0.00 0.00 61 1012.7
20210916084015 20 192 9.7 24.1 0.00 0.00 0.00 61 1012.6
20210916083515 20 149 9.7 24.1 0.00 0.00 0.00 61 1012.7
20210916083016 20 196 9.7 24.1 0.00 0.00 0.00 60 1012.6
20210916082514 20 224 8.0 24.1 0.00 0.00 0.00 60 1012.8
20210916082013 20 200 8.0 20.9 0.00 0.00 0.00 60 1012.8
20210916081508 21 238 9.7 22.5 0.00 0.00 0.00 59 1012.8
20210916081008 21 270 8.0 22.5 0.00 0.00 0.00 59 1012.7
20210916080508 21 160 8.0 20.9 0.00 0.00 0.00 59 1012.8
20210916080008 21 132 11.3 25.7 0.00 0.00 0.00 59 1013.0
20210916075507 21 167 12.9 30.6 0.00 0.00 0.00 59 1013.0
20210916075007 21 260 9.7 30.6 0.00 0.00 0.00 59 1013.1
20210916074502 21 215 9.7 29.0 0.00 0.00 0.00 59 1013.1
20210916074003 21 192 11.3 29.0 0.00 0.00 0.00 59 1013.3
20210916073501 21 159 9.7 22.5 0.00 0.00 0.00 59 1013.3
20210916073002 21 148 9.7 25.7 0.00 0.00 0.00 59 1013.4
20210916072502 21 189 8.0 25.7 0.00 0.00 0.00 59 1013.4
20210916072002 20 169 8.0 22.5 0.00 0.00 0.00 59 1013.4
20210916071502 20 174 8.0 22.5 0.00 0.00 0.00 59 1013.5
20210916071001 20 151 8.0 16.1 0.00 0.00 0.00 59 1013.4
20210916070505 20 183 6.4 16.1 0.00 0.00 0.00 58 1013.5
20210916070002 20 147 6.4 16.1 0.00 0.00 0.00 58 1013.5
20210916065503 20 148 8.0 16.1 0.00 0.00 0.00 58 1013.6
20210916065002 20 188 6.4 17.7 0.00 0.00 0.00 57 1013.5
20210916064501 20 173 6.4 17.7 0.00 0.00 0.00 57 1013.5
20210916064003 20 169 6.4 19.3 0.00 0.00 0.00 57 1013.5
20210916063501 20 164 6.4 19.3 0.00 0.00 0.00 56 1013.4
20210916063001 20 204 8.0 27.4 0.00 0.00 0.00 56 1013.5
20210916062502 20 157 8.0 27.4 0.00 0.00 0.00 56 1013.5
20210916062001 20 180 9.7 20.9 0.00 0.00 0.00 55 1013.5
20210916061501 20 157 9.7 20.9 0.00 0.00 0.00 55 1013.6
20210916061001 20 150 9.7 20.9 0.00 0.00 0.00 55 1013.6
20210916060504 20 219 9.7 22.5 0.00 0.00 0.00 55 1013.5
20210916060002 20 197 8.0 22.5 0.00 0.00 0.00 55 1013.6
20210916055501 20 168 8.0 19.3 0.00 0.00 0.00 55 1013.5
20210916055000 20 190 8.0 20.9 0.00 0.00 0.00 55 1013.7
20210916054503 20 152 8.0 20.9 0.00 0.00 0.00 55 1013.8
20210916054001 20 137 8.0 19.3 0.00 0.00 0.00 55 1013.9
20210916053501 20 188 8.0 19.3 0.00 0.00 0.00 55 1013.9
20210916053001 20 152 8.0 19.3 0.00 0.00 0.00 55 1013.9
20210916052502 20 141 8.0 19.3 0.00 0.00 0.00 55 1013.9
20210916052002 20 129 6.4 17.7 0.00 0.00 0.00 55 1013.9
20210916051502 20 154 8.0 19.3 0.00 0.00 0.00 55 1013.8
20210916051000 20 166 8.0 20.9 0.00 0.00 0.00 55 1013.8
20210916050500 20 188 8.0 20.9 0.00 0.00 0.00 55 1013.9
20210916050006 20 159 8.0 19.3 0.00 0.00 0.00 55 1013.9
20210916045502 20 200 8.0 19.3 0.00 0.00 0.00 55 1013.8
20210916045000 20 203 8.0 19.3 0.00 0.00 0.00 54 1014.0
20210916044501 20 180 6.4 19.3 0.00 0.00 0.00 54 1014.1
20210916044000 20 140 6.4 14.5 0.00 0.00 0.00 54 1014.2
20210916043502 20 174 6.4 16.1 0.00 0.00 0.00 54 1014.2
20210916043002 20 169 6.4 16.1 0.00 0.00 0.00 53 1014.2
20210916042501 20 155 6.4 16.1 0.00 0.00 0.00 53 1014.2
20210916042001 20 136 6.4 19.3 0.00 0.00 0.00 52 1014.3
20210916041502 20 146 6.4 19.3 0.00 0.00 0.00 52 1014.3
20210916041002 20 200 4.8 16.1 0.00 0.00 0.00 52 1014.3
20210916040503 20 201 6.4 16.1 0.00 0.00 0.00 51 1014.5
20210916035502 21 173 8.0 22.5 0.00 0.00 0.00 50 1014.4
20210916035001 21 151 8.0 22.5 0.00 0.00 0.00 50 1014.4
20210916034500 21 190 8.0 24.1 0.00 0.00 0.00 50 1014.4
20210916034002 21 161 8.0 24.1 0.00 0.00 0.00 50 1014.5
20210916033501 21 162 6.4 20.9 0.00 0.00 0.00 50 1014.4
20210916033001 21 186 6.4 20.9 0.00 0.00 0.00 50 1014.3
20210916032501 21 143 6.4 17.7 0.00 0.00 0.00 50 1014.4
20210916032002 21 191 9.7 20.9 0.00 0.00 0.00 49 1014.3
20210916031500 21 157 9.7 22.5 0.00 0.00 0.00 49 1014.2
20210916031000 21 132 8.0 22.5 0.00 0.00 0.00 49 1014.2
20210916030500 21 161 6.4 20.9 0.00 0.00 0.00 49 1014.1
20210916030000 21 187 6.4 20.9 0.00 0.00 0.00 49 1014.2
20210916025503 21 180 6.4 24.1 0.00 0.00 0.00 49 1014.2
20210916025002 21 133 6.4 24.1 0.00 0.00 0.00 48 1014.1
20210916024503 21 136 6.4 24.1 0.00 0.00 0.00 48 1014.2
20210916024001 21 164 6.4 19.3 0.00 0.00 0.00 48 1014.1
20210916023502 21 209 6.4 22.5 0.00 0.00 0.00 48 1014.1
20210916023001 21 154 6.4 22.5 0.00 0.00 0.00 48 1014.0
20210916022502 21 152 8.0 24.1 0.00 0.00 0.00 48 1014.1
20210916022000 21 146 8.0 24.1 0.00 0.00 0.00 48 1014.0
20210916021501 21 141 8.0 17.7 0.00 0.00 0.00 48 1014.0
20210916021000 21 113 8.0 20.9 0.00 0.00 0.00 48 1013.8
20210916020501 21 138 8.0 20.9 0.00 0.00 0.00 48 1013.8
20210916020003 21 148 8.0 17.7 0.00 0.00 0.00 47 1013.9
20210916015502 21 136 6.4 19.3 0.00 0.00 0.00 47 1013.9
20210916015002 21 145 6.4 19.3 0.00 0.00 0.00 47 1013.8
20210916014501 21 147 8.0 20.9 0.00 0.00 0.00 47 1013.7
20210916014001 21 154 9.7 20.9 0.00 0.00 0.00 47 1013.7
20210916013502 21 134 8.0 19.3 0.00 0.00 0.00 46 1013.6
20210916013001 21 136 6.4 16.1 0.00 0.00 0.00 46 1013.7
20210916012501 22 140 4.8 12.9 0.00 0.00 0.00 45 1013.7
20210916012001 22 140 4.8 8.0 0.00 0.00 0.00 45 1013.6
20210916011501 22 143 4.8 11.3 0.00 0.00 0.00 45 1013.7
20210916011002 22 146 4.8 12.9 0.00 0.00 0.00 44 1013.6
20210916010459 22 143 4.8 14.5 0.00 0.00 0.00 44 1013.6
20210916005954 22 138 4.8 14.5 0.00 0.00 0.00 44 1013.5
20210916005455 22 156 6.4 11.3 0.00 0.00 0.00 43 1013.5
20210916004955 22 153 4.8 11.3 0.00 0.00 0.00 43 1013.5
20210916004453 22 146 3.2 11.3 0.00 0.00 0.00 43 1013.5
20210916003951 22 169 3.2 8.0 0.00 0.00 0.00 43 1013.4
20210916003445 23 135 3.2 8.0 0.00 0.00 0.00 42 1013.4
20210916002942 23 136 3.2 12.9 0.00 0.00 0.00 42 1013.4
20210916002441 23 136 3.2 14.5 0.00 0.00 0.00 41 1013.3
20210916001938 23 138 3.2 14.5 0.00 0.00 0.00 41 1013.3
20210916001439 23 142 4.8 14.5 0.00 0.00 0.00 40 1013.1
20210916000934 23 148 6.4 14.5 0.00 0.00 0.00 40 1013.1
20210916000432 23 144 4.8 16.1 0.00 0.00 0.00 39 1013.1
20210915235932 23 138 4.8 16.1 0.00 0.00 0.00 39 1013.1
20210915235429 23 153 6.4 19.3 0.00 0.00 0.00 39 1013.1
20210915234930 24 165 6.4 19.3 0.00 0.00 0.00 39 1013.1
20210915234430 24 140 6.4 17.7 0.00 0.00 0.00 39 1013.1
20210915233930 24 155 8.0 19.3 0.00 0.00 0.00 38 1013.3
20210915233429 24 156 6.4 19.3 0.00 0.00 0.00 37 1013.1
20210915232930 24 138 4.8 11.3 0.00 0.00 0.00 37 1013.3
20210915232429 24 139 4.8 16.1 0.00 0.00 0.00 37 1013.3
20210915231929 25 132 4.8 16.1 0.00 0.00 0.00 36 1013.5
20210915231429 25 138 6.4 25.7 0.00 0.00 0.00 37 1013.4
20210915230930 25 160 6.4 25.7 0.00 0.00 0.00 36 1013.5
20210915230429 25 115 6.4 19.3 0.00 0.00 0.00 36 1013.6
20210915225926 25 146 8.0 16.1 0.00 0.00 0.00 35 1013.7
20210915225427 25 157 8.0 16.1 0.00 0.00 0.00 35 1013.8
20210915224927 25 188 6.4 17.7 0.00 0.00 0.00 34 1013.8
20210915224427 25 181 4.8 17.7 0.00 0.00 0.00 35 1013.8
20210915223926 25 198 4.8 16.1 0.00 0.00 0.00 35 1013.8
20210915223420 25 133 6.4 19.3 0.00 0.00 0.00 35 1014.0
20210915222920 25 186 6.4 19.3 0.00 0.00 0.00 34 1013.9
20210915222420 25 202 4.8 16.1 0.00 0.00 0.00 35 1013.9
20210915221921 25 203 6.4 16.1 0.00 0.00 0.00 35 1013.9
20210915221420 25 141 8.0 16.1 0.00 0.00 0.00 36 1014.0
20210915220920 25 130 8.0 20.9 0.00 0.00 0.00 36 1014.0
20210915220416 25 217 6.4 20.9 0.00 0.00 0.00 35 1014.2
20210915215918 25 146 4.8 14.5 0.00 0.00 0.00 35 1014.2
20210915215416 25 192 6.4 17.7 0.00 0.00 0.00 35 1014.2
20210915214914 25 234 8.0 17.7 0.00 0.00 0.00 34 1014.3
20210915214415 25 196 6.4 14.5 0.00 0.00 0.00 35 1014.3
20210915213915 25 218 6.4 14.5 0.00 0.00 0.00 33 1014.3
20210915213411 25 234 4.8 14.5 0.00 0.00 0.00 35 1014.4
20210915212909 25 257 4.8 17.7 0.00 0.00 0.00 35 1014.6
20210915212409 25 194 8.0 17.7 0.00 0.00 0.00 34 1014.5
20210915211908 25 177 8.0 17.7 0.00 0.00 0.00 34 1014.5
20210915211409 25 121 6.4 17.7 0.00 0.00 0.00 35 1014.6
20210915210909 24 213 4.8 17.7 0.00 0.00 0.00 36 1014.6
20210915210402 24 142 4.8 11.3 0.00 0.00 0.00 37 1014.7
20210915205902 24 180 6.4 17.7 0.00 0.00 0.00 36 1014.8
20210915205402 24 180 8.0 20.9 0.00 0.00 0.00 35 1014.9
20210915204903 24 184 8.0 20.9 0.00 0.00 0.00 35 1014.9
20210915204402 25 190 6.4 19.3 0.00 0.00 0.00 34 1015.0
20210915203902 25 181 6.4 14.5 0.00 0.00 0.00 35 1015.2
20210915203401 25 168 8.0 20.9 0.00 0.00 0.00 35 1015.2
20210915202901 25 270 9.7 20.9 0.00 0.00 0.00 33 1015.3
20210915202401 25 142 8.0 19.3 0.00 0.00 0.00 35 1015.3
20210915201901 25 232 8.0 16.1 0.00 0.00 0.00 34 1015.2
20210915201402 25 160 8.0 16.1 0.00 0.00 0.00 34 1015.4
20210915200902 25 222 8.0 22.5 0.00 0.00 0.00 33 1015.5
20210915200403 25 194 8.0 22.5 0.00 0.00 0.00 34 1015.6
20210915195902 25 226 8.0 19.3 0.00 0.00 0.00 35 1015.7
20210915195403 25 225 8.0 19.3 0.00 0.00 0.00 35 1015.7
20210915194901 25 159 8.0 16.1 0.00 0.00 0.00 35 1015.8
20210915194402 25 185 8.0 22.5 0.00 0.00 0.00 35 1015.8
20210915193901 25 138 6.4 22.5 0.00 0.00 0.00 35 1015.8
20210915193402 25 228 6.4 16.1 0.00 0.00 0.00 36 1015.9
20210915192901 25 155 8.0 20.9 0.00 0.00 0.00 36 1016.0
20210915192402 25 216 9.7 20.9 0.00 0.00 0.00 35 1016.0
20210915191904 25 153 8.0 16.1 0.00 0.00 0.00 37 1015.9
20210915191404 25 225 6.4 16.1 0.00 0.00 0.00 36 1016.0
20210915190902 25 198 8.0 16.1 0.00 0.00 0.00 37 1016.1
20210915190402 25 180 8.0 16.1 0.00 0.00 0.00 36 1016.1
20210915185902 24 180 6.4 16.1 0.00 0.00 0.00 40 1016.2
20210915185401 25 235 6.4 16.1 0.00 0.00 0.00 39 1016.4
20210915184901 24 186 8.0 16.1 0.00 0.00 0.00 40 1016.4
20210915184401 24 223 8.0 16.1 0.00 0.00 0.00 41 1016.7
20210915183905 24 208 8.0 16.1 0.00 0.00 0.00 41 1016.7
20210915183401 24 212 6.4 16.1 0.00 0.00 0.00 42 1016.8
20210915182903 24 133 8.0 17.7 0.00 0.00 0.00 39 1016.9
20210915182400 23 214 8.0 17.7 0.00 0.00 0.00 38 1016.8
20210915181901 23 232 8.0 17.7 0.00 0.00 0.00 40 1016.8
20210915181402 23 211 9.7 20.9 0.00 0.00 0.00 43 1016.9
20210915180901 23 140 8.0 20.9 0.00 0.00 0.00 43 1016.8
20210915180400 23 215 6.4 16.1 0.00 0.00 0.00 44 1016.9
20210915175902 23 205 6.4 16.1 0.00 0.00 0.00 47 1016.9
20210915175402 23 192 6.4 14.5 0.00 0.00 0.00 45 1017.1
20210915174901 23 242 4.8 11.3 0.00 0.00 0.00 47 1017.1
20210915174401 23 201 4.8 11.3 0.00 0.00 0.00 47 1017.1
20210915173901 23 126 4.8 16.1 0.00 0.00 0.00 50 1017.1
20210915173400 23 240 6.4 16.1 0.00 0.00 0.00 49 1017.3
20210915172901 22 233 6.4 14.5 0.00 0.00 0.00 50 1017.2
20210915172401 22 167 6.4 14.5 0.00 0.00 0.00 50 1017.2
20210915171901 22 169 6.4 14.5 0.00 0.00 0.00 49 1017.3
20210915171402 22 244 4.8 11.3 0.00 0.00 0.00 50 1017.3
20210915170902 22 210 4.8 11.3 0.00 0.00 0.00 52 1017.4
20210915170402 22 217 4.8 11.3 0.00 0.00 0.00 51 1017.5
20210915165901 21 184 6.4 11.3 0.00 0.00 0.00 50 1017.5
20210915165401 21 238 6.4 11.3 0.00 0.00 0.00 50 1017.6
20210915164901 21 236 6.4 11.3 0.00 0.00 0.00 51 1017.5
20210915164401 21 207 6.4 11.3 0.00 0.00 0.00 51 1017.5
20210915163901 21 194 4.8 11.3 0.00 0.00 0.00 51 1017.4
20210915163400 21 217 4.8 14.5 0.00 0.00 0.00 53 1017.5
20210915162901 21 217 6.4 14.5 0.00 0.00 0.00 52 1017.5
20210915162401 20 244 6.4 16.1 0.00 0.00 0.00 54 1017.6
20210915161902 20 226 6.4 16.1 0.00 0.00 0.00 53 1017.7
20210915161401 20 244 4.8 12.9 0.00 0.00 0.00 55 1017.7
20210915160901 20 170 4.8 11.3 0.00 0.00 0.00 55 1017.8
20210915160400 20 234 4.8 12.9 0.00 0.00 0.00 57 1017.8
20210915155901 20 243 6.4 12.9 0.00 0.00 0.00 55 1017.7
20210915155401 20 208 6.4 11.3 0.00 0.00 0.00 57 1017.7
20210915154902 19 205 6.4 14.5 0.00 0.00 0.00 56 1017.7
20210915154400 19 273 6.4 14.5 0.00 0.00 0.00 60 1017.9
20210915153901 19 238 6.4 14.5 0.00 0.00 0.00 61 1017.9
20210915153402 18 227 8.0 16.1 0.00 0.00 0.00 61 1017.9
20210915152902 18 205 6.4 16.1 0.00 0.00 0.00 61 1018.0
20210915152401 18 194 6.4 9.7 0.00 0.00 0.00 62 1017.9
20210915151901 18 208 6.4 11.3 0.00 0.00 0.00 64 1017.9
20210915151400 18 182 4.8 11.3 0.00 0.00 0.00 65 1017.8
20210915150903 18 190 4.8 9.7 0.00 0.00 0.00 65 1017.8
20210915150400 18 193 3.2 8.0 0.00 0.00 0.00 67 1017.7
20210915145901 17 192 4.8 9.7 0.00 0.00 0.00 66 1017.6
20210915144901 17 198 3.2 8.0 0.00 0.00 0.00 69 1017.5
20210915144401 17 198 3.2 4.8 0.00 0.00 0.00 69 1017.4
20210915143901 16 194 3.2 6.4 0.00 0.00 0.00 71 1017.5
20210915143402 16 194 3.2 8.0 0.00 0.00 0.00 71 1017.4
20210915142859 16 209 3.2 8.0 0.00 0.00 0.00 72 1017.4
20210915142359 16 223 3.2 8.0 0.00 0.00 0.00 73 1017.4
20210915141859 15 180 3.2 8.0 0.00 0.00 0.00 74 1017.3
20210915141400 15 175 3.2 8.0 0.00 0.00 0.00 75 1017.3
20210915140901 15 173 3.2 8.0 0.00 0.00 0.00 76 1017.4
20210915140402 15 169 3.2 6.4 0.00 0.00 0.00 78 1017.3
20210915135859 14 170 3.2 8.0 0.00 0.00 0.00 79 1017.4
20210915135353 14 169 4.8 9.7 0.00 0.00 0.00 80 1017.3
20210915134854 13 163 3.2 9.7 0.00 0.00 0.00 82 1017.3
20210915134353 13 197 3.2 6.4 0.00 0.00 0.00 83 1017.2
20210915133854 13 197 3.2 6.4 0.00 0.00 0.00 85 1017.3
20210915133354 12 197 3.2 6.4 0.00 0.00 0.00 87 1017.2
20210915132854 12 196 3.2 6.4 0.00 0.00 0.00 88 1017.1
20210915132350 12 196 3.2 4.8 0.00 0.00 0.00 89 1017.2
20210915131853 11 194 3.2 4.8 0.00 0.00 0.00 90 1017.1
20210915131350 11 194 3.2 4.8 0.00 0.00 0.00 91 1017.2
20210915130850 11 177 1.6 4.8 0.00 0.00 0.00 92 1017.1
20210915130349 11 177 1.6 4.8 0.00 0.00 0.00 93 1017.1
20210915125848 10 177 1.6 4.8 0.00 0.00 0.00 94 1017.1
20210915125341 10 177 3.2 4.8 0.00 0.00 0.00 94 1017.3
20210915124839 10 128 1.6 4.8 0.00 0.00 0.00 94 1017.1
20210915124338 10 80 1.6 3.2 0.00 0.00 0.00 94 1017.1
20210915123836 10 80 0.0 3.2 0.00 0.00 0.00 94 1017.1
20210915123336 10 80 0.0 0.0 0.00 0.00 0.00 94 1017.1
20210915122832 10 80 0.0 1.6 0.00 0.00 0.00 94 1017.1
20210915122331 10 80 0.0 3.2 0.00 0.00 0.00 94 1016.9
20210915121829 9 80 1.6 4.8 0.00 0.00 0.00 94 1016.9
20210915121330 9 80 1.6 4.8 0.00 0.00 0.00 94 1016.8
20210915120830 9 355 0.0 3.2 0.00 0.00 0.00 94 1016.8
20210915120330 9 355 0.0 1.6 0.00 0.00 0.00 94 1016.8
20210915115829 9 355 0.0 1.6 0.00 0.00 0.00 94 1016.7
20210915115330 9 355 0.0 1.6 0.00 0.00 0.00 94 1016.7
20210915114830 9 355 0.0 0.0 0.00 0.00 0.00 94 1016.6
20210915114329 9 355 0.0 0.0 0.00 0.00 0.00 94 1016.5
20210915113829 9 355 0.0 0.0 0.00 0.00 0.00 94 1016.6
20210915113328 9 355 0.0 0.0 0.00 0.00 0.00 94 1016.6
20210915112829 9 355 0.0 0.0 0.00 0.00 0.00 94 1016.7
20210915112329 9 355 0.0 1.6 0.00 0.00 0.00 94 1016.5
20210915111829 9 355 0.0 1.6 0.00 0.00 0.00 94 1016.5
20210915111329 9 355 0.0 0.0 0.00 0.00 0.00 94 1016.5
20210915110829 9 355 0.0 0.0 0.00 0.00 0.00 94 1016.4
20210915110330 9 355 0.0 0.0 0.00 0.00 0.00 94 1016.4
20210915105830 9 355 0.0 0.0 0.00 0.00 0.00 93 1016.4
20210915105330 9 355 0.0 1.6 0.00 0.00 0.00 93 1016.4
20210915104829 9 355 0.0 1.6 0.00 0.00 0.00 93 1016.3
20210915104330 9 355 0.0 0.0 0.00 0.00 0.00 94 1016.4
20210915103830 9 355 0.0 0.0 0.00 0.00 0.00 93 1016.4
20210915103329 9 355 0.0 0.0 0.00 0.00 0.00 93 1016.4